Location: ???????
(54.6339°N, 39.4245°E)
Time: 03:12:17
(UTC+00:00)

ASTEX 1 - Pass Details

Date: 19 May 2025
Orbit: 715 x 734 km, 92.7° (Epoch: 15 June)

Event Time Altitude Azimuth Distance (km) Brightness Sun altitude
Rises 21:36:35 0° 4° (N) 3,162 8.6 -15.3°
Reaches altitude 10° 21:38:53 10° 3° (N) 2,239 7.3 -15.3°
Maximum altitude 21:43:49 75° 280° (W) 762 3.5 -15.2°
Enters shadow 21:46:50 24° 198° (SSW) 1,492 4.4 -15.2°
